Flag for Guyana Weather past 2 weeks in Georgetown, Guyana

Now
73 °F

Partly cloudy.


Feels Like: 68 °F
Forecast: 77 / 82 °F
Wind: No wind

Location: Georgetown/Cheddi Jagan International Airport

Current Time: Mar 30, 2015 at 3:53:32 AM

Latest Report: Mar 30, 2015 at 2:00 AM


Visibility: N/A

Pressure: 29.92 "Hg

Humidity: 100%

Dew point: 73 °F

Location of GeorgetownLocation

Historic Weather in Georgetown — Graph

°F

Georgetown temperature yesterday

Maximum temperature yesterday: 84 °F (at 10:00 AM)
Minimum temperature yesterday: 73 °F (at 3:00 AM)
Average temperature yesterday: 77 °F

Past Weeks' High & Low Weather Summary

 TemperatureHumidityPressure
High90 °F (Mar 21, 1:00 PM)100% (Mar 15, 2:00 AM)30.04 "Hg (Mar 15, 2:00 AM)
Low66 °F (Mar 23, 6:00 AM)46% (Mar 23, 2:00 PM)29.80 "Hg (Mar 16, 4:00 PM)
Average78 °F83%29.92 "Hg
* Reported Mar 15 2:00 AM — Mar 30 2:00 AM, Georgetown, Weather by CustomWeather, © 2015

Note: Actual official high and low records may vary slightly from our data, if they occured in-between our weather recording intervals... More about our weather records

Advertising

Georgetown weather history for previous 24 hours

 ConditionsComfort  
Time TempWeatherWind HumidityBarometerVisibility
2:00 AM
Mon, Mar 30
73 °FPartly cloudy.No wind100%29.92 "HgN/A
1:00 AM73 °FRain showers. Partly cloudy.5 mph100%29.92 "Hg5 mi
12:00 AM73 °FPassing clouds.5 mph100%29.95 "HgN/A
11:00 PM
Sun, Mar 29
75 °FPartly cloudy.No wind94%29.98 "HgN/A
10:00 PM75 °FPartly cloudy.No wind100%29.98 "HgN/A
9:00 PM75 °FPartly cloudy.No wind94%29.95 "HgN/A
8:00 PM75 °FPartly cloudy.5 mph94%29.95 "HgN/A
7:00 PM73 °FLight rain. Partly cloudy.9 mph100%29.92 "Hg6 mi
6:00 PM75 °FSprinkles. Broken clouds.5 mph100%29.89 "Hg6 mi
5:00 PM75 °FRain. Mostly cloudy.9 mph94%29.89 "Hg2 mi
4:00 PM77 °FSprinkles. Partly sunny.7 mph94%29.89 "Hg4 mi
3:00 PM77 °FSprinkles. Partly sunny.9 mph89%29.92 "Hg3 mi
2:00 PM79 °FScattered showers. Partly sunny.14 mph84%29.95 "Hg4 mi
1:00 PM79 °FPartly sunny.14 mph84%29.98 "HgN/A
12:00 PM81 °FScattered showers. Partly sunny.14 mph79%30.01 "Hg3 mi
11:00 AM79 °FPartly sunny.7 mph89%30.01 "HgN/A
10:00 AM84 °FPartly sunny.12 mph70%30.01 "HgN/A
9:00 AM81 °FPartly sunny.12 mph79%30.04 "HgN/A
8:00 AM79 °FPartly sunny.5 mph84%30.01 "HgN/A
7:00 AM75 °FPartly sunny.No wind94%30.01 "Hg6 mi
6:00 AM73 °FPartly sunny.2 mph100%29.98 "Hg6 mi
5:00 AM73 °FPassing clouds.5 mph100%29.95 "Hg6 mi
4:00 AM73 °FPartly cloudy.No wind100%29.92 "Hg6 mi
3:00 AM73 °FPassing clouds.2 mph100%29.92 "HgN/A
Weather by CustomWeather, © 2015

See weather overviewHow to use our weather pages